Location: ?????
(44.4284°N, 135.2222°E)
Time: 16:45:10
(UTC+00:00)

Cosmos 1125 Rocket - Pass Details

Date: 19 May 2025
Orbit: 753 x 776 km, 74.0° (Epoch: 21 June)

Event Time Altitude Azimuth Distance (km) Brightness Sun altitude
Rises 12:43:02 0° 334° (NNW) 3,266 8.4 -18.9°
Reaches altitude 10° 12:45:28 10° 330° (NNW) 2,334 7.3 -19.1°
Maximum altitude 12:50:36 52° 255° (WSW) 960 4.0 -19.6°
Enters shadow 12:53:04 29° 194° (SSW) 1,400 4.5 -19.8°
